www.pogodaiklimat.ru

Погода и климат >> Архив погоды >> Россия >> Томская область >> Новый Васюган


ПОГОДА в Новом Васюгане

  • Прогноз погоды в Новом Васюгане
  • Монитор погоды в Новом Васюгане

АРХИВ ПОГОДЫ в Новом Васюгане

Время (UTC), дата Ветер
(напр.,м/с)
 
Видим.   Явления Облачность Т
(С)
Тd
(С)
f
(%)
Тe
(С)
Тes
(С)
Комфортность P
(гПа)
Po
(гПа)
Тmin
(С)
Tmax
(С)
R
(мм)
R24
(мм)
S
(см)
18 17.06 ЮЗ 1 4000 м дымка {ливн. осадки} 6/1 600 м
[Sc Ac lent Ci fib]
+8.9 +7.7 92 +8 +8 1003.0 993.3
21 17.06 Ю 1 2000 м в посл. час туман 3/0
[Ac lent Ci fib]
+6.1 +5.1 93 +5 +5 1002.9 993.1
00 18.06 штиль 0 2000 м туман 4/0
[Ac lent Ci sp]
+8.1 +7.1 93 +7 +8 1003.0 993.3 +4.4 0.3
03 18.06 В 1 50 км 8/1 300 м
[Cu hum Ac cast Ci]
+13.5 +7.9 69 +14 +19 1002.7 993.2
06 18.06 В 1 50 км 9/4 300 м
[Cb calv Ac As Ci sp]
+13.5 +8.2 70 +14 +20 1002.1 992.6
09 18.06 СВ 2 10 км слаб. ливневой дождь 10/4 300 м
[Cb cap Ac und]
+13.7 +9.1 74 +13 +15 1001.1 991.6
12 18.06 С 2 10 км слаб. ливневой дождь 10/5 600 м
[Cb cap Ac cuf]
+12.6 +10.7 88 +12 +12 1000.2 990.7 +14.1 1
15 18.06 СЗ 2 10 км слаб. ливневой дождь 9/8 540 м
[Cb cap Ac As]
+11.9 +10.5 91 +11 +11 999.6 990.1
18 18.06 З 3 50 км {ливн. осадки} 9/3 300 м
[Cb cap Ac As]
+10.9 +8.9 87 +9 +9 999.5 990.0
21 18.06 Ю 1 50 км 8/1 1000 м
[Sc Ac cast Ci fib]
+9.4 +7.9 90 +9 +9 998.9 989.3
00 19.06 З 2 50 км 3/0
[Ac lent Ci sp]
+8.4 +6.0 85 +7 +8 1000.2 990.6 +7.7 2
03 19.06 З 5 50 км 3/1 600 м
[Cu hum Ac trans]
+14.1 +7.2 63 +13 +16 1001.5 992.1
06 19.06 З 3
{16}
50 км 9/4 600 м
[Cb cap Ac cuf]
+13.7 +4.4 53 +13 +16 1003.4 993.9
09 19.06 З 4
{11}
50 км осадки на расстоянии {ливн. осадки} 8/5 600 м
[Cb calv Ac cuf Ci sp]
+16.0 +2.6 41 +15 +18 1004.7 995.2
12 19.06 ЮЗ 3
{10}
50 км {ливн. осадки} 8/4 600 м
[Cb cap Ac cuf Ci fib]
+16.3 +4.1 44 +16 +18 1006.6 997.2 +16.9 0.3
15 19.06 Ю 2 50 км 8/3 600 м
[Sc Ac cuf Ci]
+12.9 +6.2 64 +12 +12 1008.3 998.8
18 19.06 Ю 1 50 км в посл. час ливневой дождь 8/4 600 м
[Cb cap Ac cuf Ci fib]
+10.6 +8.2 85 +10 +10 1009.7 1000.0
21 19.06 Ю 1 20 км туман поземный 3/1 600 м
[Sc Ac trans Ci fib]
+7.5 +6.3 92 +7 +7 1010.7 1000.9
00 20.06 штиль 0 20 км 3/0
[Ac trans Ci fib]
+9.5 +8.4 93 +9 +10 1011.5 1001.8 +6.8 0.5
03 20.06 ЮВ 2 50 км 5/0
[Ac cast Cc]
+17.2 +7.9 54 +18 +23 1011.7 1002.3
06 20.06 Ю 3 50 км 5/3 600 м
[Cu med, cong Cc]
+20.0 +5.5 39 +21 +29 комфорт 1011.5 1002.1
09 20.06 Ю 4-10
{10}
50 км 4/3 600 м
[Sc diur, vesp Cc]
+20.4 +3.0 32 +21 +27 комфорт 1010.6 1001.3
12 20.06 Ю 4
{10}
50 км 8/4 600 м
[Cb calv Ci fib]
+20.6 +7.4 42 +22 +23 комфорт 1009.7 1000.4 +21.8
15 20.06 ЮВ 1
{11}
50 км в посл. час ливневой дождь {гроза} 9/3 600 м
[Cb cap Ac cuf Ci fib]
+14.2 +11.2 82 +15 +15 1011.1 1001.5
18 20.06 Ю 1 50 км {гроза, ливн. осадки} 10/0
[Ac cuf Ci fib]
+11.9 +9.6 86 +12 +12 1010.7 1001.1
21 20.06 Ю 2 50 км 10/0
[Ac trans Ci fib]
+11.3 +9.6 89 +10 +10 1009.8 1000.2
00 21.06 ЮВ 2 50 км 10/0
[Ac lent Ci sp]
+12.9 +10.4 85 +12 +13 1008.8 999.3 +11.1 0.6
03 21.06 Ю 3 20 км осадки на расстоянии 10/3 600 м
[Cb cap Ac As Ci sp]
+16.5 +10.3 67 +16 +19 1007.3 997.9
06 21.06 Ю 3 10 км слаб. ливневой дождь 10/4 600 м
[Cb cap Ac und]
+17.0 +11.2 69 +17 +19 1006.7 997.4
09 21.06 ЮЗ 5-10
{10}
50 км {ливн. осадки} 10/3 600 м
[Cb cap Ac und]
+19.0 +10.1 56 +19 +21 1006.7 997.4
12 21.06 ЮЗ 3
{13}
50 км {ливн. осадки} 10/4 600 м
[Cb cap Ac lent Ci sp]
+18.4 +10.3 59 +19 +20 1006.4 997.0 +19.3 0.0
15 21.06 Ю 3 10 км слаб. ливневой дождь 10/5 600 м
[Cb calv Ac und]
+13.9 +12.5 91 +13 +13 1006.6 997.1
18 21.06 Ю 2 50 км в посл. час ливневой дождь 10/10 270 м
[Cb calv]
+13.5 +12.4 93 +13 +13 1006.4 996.9
21 21.06 ЮЗ 2 50 км {ливн. осадки} 10/10 240 м
[Cb calv]
+13.1 +11.9 92 +12 +12 1005.8 996.3
00 22.06 Ю 2 50 км {ливн. осадки} 4/3 200 м
[St Ac lent Cc]
+12.2 +11.1 93 +11 +12 1005.8 996.3 +11.7 9
03 22.06 ЮВ 1 20 км 10/10 210 м
[Cb cap]
+13.3 +11.9 91 +13 +13 1005.8 996.3
06 22.06 З 4 50 км в посл. час ливневой дождь {гроза} 10/10 240 м
[Cb cap]
+12.5 +10.5 88 +11 +11 1006.7 997.2
09 22.06 С 3 50 км 9/9 570 м
[Cb cap]
+15.5 +10.0 70 +15 +16 1006.5 997.1
12 22.06 ЮЗ 4 50 км 9/5 600 м
[Cb cap Ac cuf Ci sp]
+15.5 +9.3 67 +15 +16 1007.2 997.8 +16.6 5
15 22.06 З 2 10 км слаб. ливневой дождь 10/5 300 м
[Cb cap Ac cuf]
+11.2 +9.9 92 +10 +10 1008.6 999.0
18 22.06 СЗ 3 20 км в посл. час ливневой дождь 10/5 600 м
[Cb cap Ac und]
+11.2 +10.0 92 +9 +9 1009.2 999.6
21 22.06 С 3 10 км слаб. ливневой дождь 10/4 300 м
[Cb cap Ac und]
+9.9 +8.3 90 +8 +8 1010.0 1000.3
00 23.06 С 3 50 км {ливн. осадки} 5/1 600 м
[Sc Ac trans Ci sp]
+9.8 +7.5 86 +8 +8 1010.6 1000.9 +8.8 13
03 23.06 СЗ 5 50 км 8/3 300 м
[Cu med, cong Ac trans Ci]
+12.2 +6.9 70 +10 +12 1011.3 1001.7
06 23.06 СЗ 4 50 км 8/3 300 м
[Sc Ac cast Cc]
+15.7 +6.4 54 +15 +19 1011.2 1001.7
09 23.06 СЗ 3 50 км 5/3 600 м
[Sc diur, vesp Ac cast Ci]
+17.7 +5.9 46 +18 +24 1010.8 1001.4
12 23.06 С 1 50 км 4/4 600 м
[Sc diur, vesp]
+20.2 +4.9 37 +22 +25 комфорт 1010.1 1000.8 +20.3
15 23.06 ЮЗ 1 50 км 1/1 1000 м
[Sc diur, vesp]
+18.4 +6.9 47 +20 +20 1010.2 1000.8
18 23.06 Ю 1 50 км ясно +9.7 +8.2 90 +9 +9 1010.7 1001.0
21 23.06 штиль 0 50 км ясно +7.3 +6.1 92 +6 +6 1010.5 1000.7
00 24.06 Ю 2 50 км ясно +9.4 +7.0 85 +8 +9 1010.6 1000.9 +6.6
03 24.06 ЮВ 1 50 км ясно +18.6 +8.6 52 +20 +29 1010.5 1001.1
06 24.06 Ю 1 50 км 1/1 600 м
[Cu hum]
+21.6 +4.9 34 +22 +37 комфорт 1009.5 1000.2
09 24.06 ЮЗ 3 50 км 4/1 600 м
[Cu hum Ci fib]
+23.6 +5.6 31 +24 +32 комфорт 1008.8 999.6
12 24.06 ЮЗ 3 50 км 6/0
[Ac lent Cc]
+24.6 +5.0 28 +24 +27 комфорт 1008.3 999.1 +24.6
15 24.06 Ю 1 50 км 9/1 600 м
[Sc Ac lent Ci]
+20.7 +8.4 45 +23 +23 комфорт 1008.5 999.2

 

Местоположение метеостанции Новый Васюган (Томская область, Россия): широта 58.58 долгота 76.52 высота над уровнем моря 80 м.

В архиве по умолчанию представлена погода в Новом Васюгане за последнюю неделю. Архивные данные за месяц целиком и за предыдущие месяцы, начиная с января 2011 года, Вы можете получить, выбрав интересующий диапазон дат из раскрывающегося списка и нажав кнопку "Ввод!".


*Определитесь, кто Вы:
робот инопланетянин человек

Внимание! Время в таблицах - всемирное. Для получения местного времени необходимо прибавить поправку, которая равна 7 ч.

Смотрите также архив погоды в соседних городах и на ближайших метеорологических станциях:

Погода в Майске (Томская область, Россия) (94 км)
Погода в Среднем Васюгане (Томская область, Россия) (121 км)
Погода в Вассисе (Омская область, Россия) (172 км)
Погода в Седельниково (Омская область, Россия) (195 км)
Погода в Прохоркино (Томская область, Россия) (198 км)
Погода в Пудино (Томская область, Россия) (205 км)
Погода в Таурово (Ханты-Мансийский АО, Россия) (216 км)
Погода в Александровском (Томская область, Россия) (219 км)
Погода в Кыштовке (Новосибирская область, Россия) (220 км)
Погода в Таре (Омская область, Россия) (226 км)

Пояснения к столбцам:

Ветер - указаны скорость ветра в м/с - средняя за 10 мин, порывы в срок и между сроками (в фигурных скобках) и направление, откуда дует ветер: С - северный, СВ - северо-восточный, В - восточный, ЮВ - юго-восточный, Ю - южный, ЮЗ - юго-западный, З - западный, СЗ - северо-западный.
Видимость - горизонтальная дальность видимости в метрах или километрах. При видимости от 1 до 10 км при отсутствии осадков обычно наблюдается дымка, при ухудшении видимости до 1 км и менее - туман. В сухую погоду видимость может ухудшаться дымом, пылью или мглою.
Явления - указаны атмосферные явления, наблюдавшиеся в срок или в последний час перед сроком; фигурными скобками обозначены явления, наблюдавшиеся между сроками (за 1-3 часа до срока); квадратными скобками обозначены град или гололедные отложения с указанием их диаметра в мм.
Облачность - указаны через наклонную черту общая и нижняя облачность в баллах и высота нижней границы облаков в метрах; квадратными скобками обозначены формы облаков: Ci - перистые, Cs - перисто-слоистые, Cc - перисто-кучевые, Ac - высококучевые, As - высокослоистые, Sc - слоисто-кучевые, Ns - слоисто-дождевые, Cu - кучевые, Cb - кучево-дождевые. Подробнее классификацию облаков см. в Атласе облаков (PDF).
T - Температура воздуха - температура, измеренная на высоте 2 м над землей.
Td - Температура точки росы - температура, при понижении до которой содержащийся в воздухе водяной пар достигнет насыщения.
f - Относительная влажность воздуха - влажноcть воздуха, измеренная на высоте 2 м над землей.
Te - Эффективная температура - температура, которую ощущает одетый по сезону человек в тени. Характеристика душности погоды. При расчете учитывается влияние влажности воздуха и скорости ветра на теплоощущения человека.
Tes - Эффективная температура на солнце - температура, которую ощущает человек, с поправкой на солнечный нагрев. Характеристика знойности погоды. Зависит от высоты солнца над горизонтом, облачности и скорости ветра. Ночью, в пасмурную погоду, а также при ветре 12 м/с и более поправка равна нулю.
P - Атмосферное давление - приведенное к уровню моря атмосферное давление.
Po - Атмосферное давление - измеренное на уровне метеостанции атмосферное давление.
Tmin - Минимальная температура - минимум температуры воздуха на высоте 2 м над землей.
Tmax - Максимальная температура - максимум температуры воздуха на высоте 2 м над землей.
R - Количество осадков - Количество выпавших осадков за период времени, мм. При наведении курсора мыши на число - период времени, за который выпало указанное количество осадков.
R24 - Количество осадков - Количество выпавших осадков за 24 часа, мм.
S - Снежный покров - Высота снежного покрова, см. При наведении курсора мыши на число - состояние снежного покрова и степень покрытия местности в баллах.